When you browse on this site, cookies collect data to enhance your experience and personalize the content and advertising you see.
Visit our Privacy Policy to learn more. By continuing to use the site, you agree to this use of cookies and data.
EN

Hourly Weather San Antonio

Today, 12 July, Sunday

Time Temperature Precipitation Wind Pressure Humidity
00:00 +28°C° 0 mm 3 mps 742 mmHg 84%
01:00 +28°C° 0 mm 2 mps 742 mmHg 87%
02:00 +27°C° 0 mm 2 mps 742 mmHg 89%
03:00 +27°C° 0 mm 2 mps 742 mmHg 90%
04:00 +26°C° 0 mm 2 mps 742 mmHg 91%
05:00 +26°C° 0 mm 2 mps 742 mmHg 92%
06:00 +28°C° 0 mm 2 mps 742 mmHg 79%
07:00 +30°C° 0 mm 3 mps 743 mmHg 65%
08:00 +34°C° 0 mm 3 mps 743 mmHg 52%
09:00 +36°C° 0 mm 3 mps 743 mmHg 43%
10:00 +38°C° 0 mm 3 mps 743 mmHg 35%
11:00 +40°C° 0 mm 3 mps 743 mmHg 26%
12:00 +42°C° 0 mm 3 mps 742 mmHg 23%
13:00 +42°C° 0 mm 2 mps 741 mmHg 20%
14:00 +43°C° 0 mm 2 mps 741 mmHg 17%
15:00 +43°C° 0 mm 2 mps 740 mmHg 18%
16:00 +43°C° 0 mm 2 mps 740 mmHg 18%
17:00 +42°C° 0 mm 1 mps 739 mmHg 19%
18:00 +40°C° 0 mm 2 mps 739 mmHg 26%
19:00 +37°C° 0 mm 3 mps 739 mmHg 33%
20:00 +34°C° 0 mm 4 mps 739 mmHg 40%
21:00 +33°C° 0 mm 4 mps 740 mmHg 49%
22:00 +31°C° 0 mm 3 mps 740 mmHg 58%
23:00 +29°C° 0 mm 3 mps 740 mmHg 67%

Tomorrow, 13 July, Monday

Time Temperature Precipitation Wind Pressure Humidity
00:00 +29°C° 0 mm 3 mps 740 mmHg 68%
01:00 +28°C° 0 mm 2 mps 740 mmHg 69%
02:00 +28°C° 0 mm 2 mps 740 mmHg 71%
03:00 +27°C° 0 mm 2 mps 740 mmHg 71%
04:00 +27°C° 0 mm 2 mps 740 mmHg 72%
05:00 +27°C° 0 mm 2 mps 741 mmHg 72%
06:00 +29°C° 0 mm 2 mps 741 mmHg 61%
07:00 +33°C° 0 mm 3 mps 741 mmHg 50%
08:00 +35°C° 0 mm 3 mps 741 mmHg 39%
09:00 +37°C° 0 mm 3 mps 741 mmHg 33%
10:00 +40°C° 0 mm 4 mps 741 mmHg 28%
11:00 +42°C° 0 mm 4 mps 741 mmHg 22%
12:00 +43°C° 0 mm 4 mps 740 mmHg 21%
13:00 +44°C° 0 mm 4 mps 740 mmHg 19%
14:00 +45°C° 0 mm 4 mps 739 mmHg 17%
15:00 +45°C° 0 mm 4 mps 739 mmHg 18%
16:00 +44°C° 0 mm 4 mps 739 mmHg 18%
17:00 +44°C° 0 mm 4 mps 739 mmHg 19%
18:00 +41°C° 0 mm 5 mps 739 mmHg 29%
19:00 +38°C° 0 mm 6 mps 739 mmHg 39%
20:00 +34°C° 0 mm 6 mps 739 mmHg 50%
21:00 +33°C° 0 mm 6 mps 740 mmHg 53%
22:00 +30°C° 0 mm 5 mps 740 mmHg 56%
23:00 +29°C° 0 mm 4 mps 740 mmHg 58%

Day after tomorrow, 14 July, Tuesday

Time Temperature Precipitation Wind Pressure Humidity
00:00 +29°C° 0 mm 4 mps 740 mmHg 60%
01:00 +28°C° 0 mm 3 mps 740 mmHg 62%
02:00 +27°C° 0 mm 3 mps 740 mmHg 64%
03:00 +27°C° 0 mm 2 mps 740 mmHg 66%
04:00 +26°C° 0 mm 2 mps 740 mmHg 67%
05:00 +26°C° 0 mm 2 mps 740 mmHg 69%
06:00 +28°C° 0 mm 3 mps 740 mmHg 61%
07:00 +30°C° 0 mm 3 mps 741 mmHg 53%
08:00 +34°C° 0 mm 4 mps 741 mmHg 45%
09:00 +36°C° 0 mm 4 mps 741 mmHg 37%
10:00 +40°C° 0 mm 5 mps 741 mmHg 30%
11:00 +43°C° 0 mm 5 mps 741 mmHg 23%
12:00 +45°C° 0 mm 5 mps 740 mmHg 21%
13:00 +46°C° 0 mm 5 mps 740 mmHg 19%
14:00 +47°C° 0 mm 6 mps 740 mmHg 17%
15:00 +46°C° 0 mm 6 mps 739 mmHg 18%
16:00 +45°C° 0 mm 6 mps 739 mmHg 19%
17:00 +45°C° 0 mm 6 mps 739 mmHg 20%
18:00 +40°C° 0 mm 6 mps 739 mmHg 32%
19:00 +36°C° 0 mm 6 mps 740 mmHg 45%
20:00 +33°C° 0 mm 6 mps 740 mmHg 57%
21:00 +32°C° 0 mm 6 mps 740 mmHg 61%
22:00 +30°C° 0 mm 5 mps 740 mmHg 65%
23:00 +28°C° 0 mm 4 mps 741 mmHg 68%

15 July, Wednesday

Time Temperature Precipitation Wind Pressure Humidity
00:00 +27°C° 0 mm 3 mps 741 mmHg 74%
01:00 +27°C° 0 mm 3 mps 741 mmHg 79%
02:00 +26°C° 0 mm 2 mps 741 mmHg 85%
03:00 +25°C° 0 mm 2 mps 741 mmHg 87%
04:00 +25°C° 0 mm 2 mps 741 mmHg 89%
05:00 +25°C° 0 mm 2 mps 741 mmHg 91%
06:00 +27°C° 0 mm 3 mps 742 mmHg 79%
07:00 +30°C° 0 mm 3 mps 742 mmHg 67%
08:00 +33°C° 0 mm 4 mps 743 mmHg 55%
09:00 +35°C° 0 mm 5 mps 743 mmHg 46%
10:00 +39°C° 0 mm 5 mps 743 mmHg 37%
11:00 +41°C° 0 mm 6 mps 743 mmHg 28%
12:00 +42°C° 0 mm 6 mps 742 mmHg 26%
13:00 +44°C° 0 mm 6 mps 742 mmHg 24%
14:00 +45°C° 0 mm 6 mps 741 mmHg 22%
15:00 +44°C° 0 mm 6 mps 741 mmHg 24%
16:00 +42°C° 0 mm 6 mps 740 mmHg 26%
17:00 +41°C° 0 mm 7 mps 740 mmHg 29%
18:00 +39°C° 0 mm 7 mps 741 mmHg 39%
19:00 +35°C° 0 mm 7 mps 741 mmHg 50%
20:00 +32°C° 0 mm 6 mps 742 mmHg 60%
21:00 +30°C° 0 mm 5 mps 742 mmHg 67%
22:00 +29°C° 0 mm 4 mps 742 mmHg 73%
23:00 +27°C° 0 mm 3 mps 742 mmHg 79%

16 July, Thursday

Time Temperature Precipitation Wind Pressure Humidity
00:00 +27°C° 0 mm 3 mps 743 mmHg 82%
01:00 +26°C° 0 mm 2 mps 743 mmHg 84%
02:00 +25°C° 0 mm 2 mps 743 mmHg 87%
03:00 +25°C° 0 mm 2 mps 743 mmHg 89%
04:00 +25°C° 0 mm 2 mps 743 mmHg 91%
05:00 +25°C° 0 mm 2 mps 744 mmHg 94%
06:00 +27°C° 0 mm 2 mps 744 mmHg 85%
07:00 +28°C° 0 mm 2 mps 745 mmHg 76%
08:00 +30°C° 0 mm 3 mps 745 mmHg 67%
09:00 +34°C° 0 mm 3 mps 745 mmHg 55%
10:00 +36°C° 0 mm 4 mps 745 mmHg 44%
11:00 +40°C° 0 mm 4 mps 745 mmHg 32%
12:00 +41°C° 0 mm 4 mps 744 mmHg 29%
13:00 +42°C° 0 mm 5 mps 744 mmHg 26%
14:00 +43°C° 0 mm 5 mps 743 mmHg 24%
15:00 +42°C° 0 mm 6 mps 743 mmHg 26%
16:00 +42°C° 0 mm 6 mps 743 mmHg 28%
17:00 +41°C° 0 mm 7 mps 742 mmHg 30%
18:00 +38°C° 0 mm 6 mps 743 mmHg 38%
19:00 +35°C° 0 mm 6 mps 743 mmHg 46%
20:00 +32°C° 0 mm 6 mps 744 mmHg 54%
21:00 +30°C° 0 mm 5 mps 744 mmHg 63%
22:00 +28°C° 0 mm 4 mps 744 mmHg 73%
23:00 +27°C° 0 mm 3 mps 745 mmHg 82%

17 July, Friday

Time Temperature Precipitation Wind Pressure Humidity
00:00 +26°C° 0 mm 3 mps 744 mmHg 86%
01:00 +26°C° 0 mm 2 mps 744 mmHg 90%
02:00 +25°C° 0 mm 2 mps 744 mmHg 93%
03:00 +25°C° 0 mm 2 mps 744 mmHg 94%
04:00 +25°C° 0 mm 1 mps 745 mmHg 95%
05:00 +25°C° 0 mm 1 mps 745 mmHg 96%
06:00 +27°C° 0 mm 1 mps 745 mmHg 84%
07:00 +29°C° 0 mm 2 mps 745 mmHg 73%
08:00 +31°C° 0 mm 2 mps 745 mmHg 61%
09:00 +34°C° 0 mm 2 mps 745 mmHg 51%
10:00 +37°C° 0 mm 2 mps 745 mmHg 42%
11:00 +39°C° 0 mm 2 mps 745 mmHg 32%
12:00 +40°C° 0 mm 3 mps 744 mmHg 29%
13:00 +42°C° 0 mm 3 mps 743 mmHg 27%
14:00 +43°C° 0 mm 4 mps 743 mmHg 24%
15:00 +42°C° 0 mm 4 mps 742 mmHg 25%
16:00 +42°C° 0 mm 4 mps 742 mmHg 25%
17:00 +42°C° 0 mm 4 mps 742 mmHg 26%
18:00 +39°C° 0 mm 5 mps 742 mmHg 35%
19:00 +36°C° 0 mm 5 mps 742 mmHg 44%
20:00 +33°C° 0 mm 5 mps 743 mmHg 52%
21:00 +32°C° 0 mm 4 mps 743 mmHg 58%
22:00 +30°C° 0 mm 4 mps 743 mmHg 64%
23:00 +28°C° 0 mm 3 mps 743 mmHg 70%
Show more